Location: Pian di Sc�
(43.6333°N, 11.5500°E)
Time: 13:18:11
(UTC+00:00)

Landsat 5 - Pass Details

Date: 07 August 2020
Orbit: 529 x 654 km, 98.2° (Epoch: 24 September)

Event Time Altitude Azimuth Distance (km) Brightness Sun altitude
Rises 03:17:26 0° 183° (S) 2,668 6.5 -9.2°
Reaches altitude 10° 03:19:36 10° 190° (S) 1,793 5.5 -8.8°
Maximum altitude 03:23:15 40° 261° (W) 817 3.8 -8.3°
Drops below altitude 10° 03:27:02 10° 332° (NNW) 1,859 6.1 -7.7°
Sets 03:29:19 0° 340° (NNW) 2,781 7.1 -7.3°
